When you browse on this site, cookies collect data to enhance your experience and personalize the content and advertising you see.
Visit our Privacy Policy to learn more. By continuing to use the site, you agree to this use of cookies and data.
  • In United Kingdom
  • List of Countries
  • For 7 days
  • Water Temperature
  • Satellite Maps
  • Weather Map
  • Weather Widgets
  • user-avatar
    Login

    Hourly Weather Grand Sess

    Today, 20 February, Wednesday

    Time Temperature Precipitation Wind Pressure Humidity
    00:00 +27°C° 0 mm 2 mps 757 mmHg 91%
    01:00 +27°C° 0 mm 2 mps 756 mmHg 91%
    02:00 +27°C° 0 mm 2 mps 756 mmHg 91%
    03:00 +27°C° 0.1 mm 1 mps 756 mmHg 92%
    04:00 +27°C° 0.1 mm 1 mps 756 mmHg 92%
    05:00 +27°C° 0.1 mm 1 mps 756 mmHg 92%
    06:00 +28°C° 0 mm 1 mps 757 mmHg 88%
    07:00 +29°C° 0 mm 2 mps 757 mmHg 85%
    08:00 +30°C° 0 mm 2 mps 757 mmHg 81%
    09:00 +31°C° 0 mm 2 mps 757 mmHg 76%
    10:00 +32°C° 0 mm 2 mps 757 mmHg 72%
    11:00 +32°C° 0 mm 2 mps 757 mmHg 67%
    12:00 +33°C° 0.6 mm 3 mps 757 mmHg 70%
    13:00 +33°C° 0.6 mm 3 mps 756 mmHg 73%
    14:00 +31°C° 0.6 mm 3 mps 756 mmHg 76%
    15:00 +31°C° 0.5 mm 3 mps 756 mmHg 79%
    16:00 +30°C° 0.5 mm 3 mps 756 mmHg 83%
    17:00 +29°C° 0.5 mm 3 mps 756 mmHg 87%
    18:00 +29°C° 0.9 mm 3 mps 756 mmHg 89%
    19:00 +28°C° 0.9 mm 2 mps 757 mmHg 90%
    20:00 +27°C° 0.9 mm 2 mps 758 mmHg 91%
    21:00 +27°C° 0.3 mm 2 mps 758 mmHg 92%
    22:00 +27°C° 0.3 mm 2 mps 758 mmHg 92%
    23:00 +27°C° 0.3 mm 2 mps 759 mmHg 92%

    Tomorrow, 21 February, Thursday

    Time Temperature Precipitation Wind Pressure Humidity
    00:00 +27°C° 1.2 mm 2 mps 758 mmHg 92%
    01:00 +27°C° 1.2 mm 2 mps 758 mmHg 92%
    02:00 +27°C° 1.2 mm 2 mps 757 mmHg 91%
    03:00 +27°C° 0.2 mm 2 mps 757 mmHg 91%
    04:00 +27°C° 0.2 mm 2 mps 757 mmHg 91%
    05:00 +27°C° 0.2 mm 2 mps 758 mmHg 91%
    06:00 +28°C° 0 mm 2 mps 758 mmHg 88%
    07:00 +29°C° 0 mm 2 mps 759 mmHg 85%
    08:00 +30°C° 0 mm 2 mps 759 mmHg 81%
    09:00 +31°C° 0 mm 2 mps 759 mmHg 76%
    10:00 +32°C° 0 mm 2 mps 759 mmHg 71%
    11:00 +34°C° 0 mm 2 mps 759 mmHg 66%
    12:00 +34°C° 0 mm 3 mps 758 mmHg 66%
    13:00 +34°C° 0 mm 3 mps 757 mmHg 66%
    14:00 +34°C° 0 mm 4 mps 756 mmHg 66%
    15:00 +33°C° 0 mm 4 mps 756 mmHg 69%
    16:00 +32°C° 0 mm 4 mps 756 mmHg 72%
    17:00 +31°C° 0 mm 3 mps 756 mmHg 75%
    18:00 +30°C° 0 mm 3 mps 757 mmHg 79%
    19:00 +29°C° 0 mm 3 mps 758 mmHg 83%
    20:00 +28°C° 0 mm 3 mps 758 mmHg 87%
    21:00 +28°C° 0 mm 2 mps 759 mmHg 88%
    22:00 +28°C° 0 mm 2 mps 759 mmHg 89%
    23:00 +28°C° 0 mm 2 mps 759 mmHg 90%

    Day after tomorrow, 22 February, Friday

    Time Temperature Precipitation Wind Pressure Humidity
    00:00 +28°C° 0 mm 2 mps 758 mmHg 90%
    01:00 +28°C° 0 mm 2 mps 758 mmHg 91%
    02:00 +27°C° 0 mm 2 mps 757 mmHg 91%
    03:00 +27°C° 0 mm 2 mps 757 mmHg 91%
    04:00 +27°C° 0 mm 2 mps 757 mmHg 91%
    05:00 +27°C° 0 mm 2 mps 757 mmHg 91%
    06:00 +28°C° 0 mm 2 mps 758 mmHg 86%
    07:00 +29°C° 0 mm 2 mps 759 mmHg 81%
    08:00 +31°C° 0 mm 2 mps 759 mmHg 76%
    09:00 +32°C° 0 mm 2 mps 759 mmHg 72%
    10:00 +34°C° 0 mm 3 mps 759 mmHg 67%
    11:00 +35°C° 0 mm 3 mps 758 mmHg 63%
    12:00 +34°C° 0 mm 3 mps 758 mmHg 64%
    13:00 +34°C° 0 mm 4 mps 757 mmHg 66%
    14:00 +34°C° 0 mm 4 mps 756 mmHg 67%
    15:00 +33°C° 0 mm 4 mps 756 mmHg 70%
    16:00 +32°C° 0 mm 4 mps 756 mmHg 74%
    17:00 +30°C° 0 mm 3 mps 756 mmHg 77%
    18:00 +30°C° 0 mm 3 mps 757 mmHg 80%
    19:00 +29°C° 0 mm 3 mps 757 mmHg 84%
    20:00 +28°C° 0 mm 2 mps 758 mmHg 88%
    21:00 +28°C° 0 mm 2 mps 758 mmHg 88%
    22:00 +28°C° 0 mm 2 mps 758 mmHg 89%
    23:00 +28°C° 0 mm 2 mps 758 mmHg 89%

    23 February, Saturday

    Time Temperature Precipitation Wind Pressure Humidity
    00:00 +28°C° 0 mm 2 mps 757 mmHg 89%
    01:00 +28°C° 0 mm 3 mps 757 mmHg 90%
    02:00 +28°C° 0 mm 3 mps 756 mmHg 90%
    03:00 +27°C° 0 mm 3 mps 756 mmHg 90%
    04:00 +27°C° 0 mm 2 mps 756 mmHg 91%
    05:00 +27°C° 0 mm 2 mps 756 mmHg 91%
    06:00 +28°C° 0.2 mm 2 mps 757 mmHg 86%
    07:00 +29°C° 0.2 mm 2 mps 758 mmHg 82%
    08:00 +31°C° 0.2 mm 2 mps 758 mmHg 77%
    09:00 +31°C° 1 mm 2 mps 758 mmHg 75%
    10:00 +31°C° 1 mm 2 mps 758 mmHg 74%
    11:00 +32°C° 1 mm 2 mps 758 mmHg 73%
    12:00 +33°C° 0.3 mm 3 mps 757 mmHg 72%
    13:00 +33°C° 0.3 mm 3 mps 756 mmHg 71%
    14:00 +33°C° 0.3 mm 3 mps 755 mmHg 70%
    15:00 +31°C° 0 mm 3 mps 755 mmHg 72%
    16:00 +31°C° 0 mm 3 mps 755 mmHg 74%
    17:00 +30°C° 0 mm 3 mps 755 mmHg 76%
    18:00 +29°C° 0 mm 2 mps 756 mmHg 79%
    19:00 +29°C° 0 mm 2 mps 756 mmHg 82%
    20:00 +28°C° 0 mm 2 mps 757 mmHg 85%
    21:00 +28°C° 0 mm 2 mps 757 mmHg 86%
    22:00 +28°C° 0 mm 3 mps 756 mmHg 86%
    23:00 +28°C° 0 mm 3 mps 756 mmHg 87%

    24 February, Sunday

    Time Temperature Precipitation Wind Pressure Humidity
    00:00 +27°C° 0 mm 3 mps 756 mmHg 89%
    01:00 +27°C° 0 mm 3 mps 755 mmHg 90%
    02:00 +27°C° 0 mm 4 mps 755 mmHg 91%
    03:00 +27°C° 0.1 mm 3 mps 755 mmHg 92%
    04:00 +27°C° 0.1 mm 3 mps 755 mmHg 92%
    05:00 +27°C° 0.1 mm 2 mps 755 mmHg 92%
    06:00 +28°C° 0.3 mm 2 mps 756 mmHg 87%
    07:00 +29°C° 0.3 mm 2 mps 757 mmHg 83%
    08:00 +30°C° 0.3 mm 2 mps 757 mmHg 79%
    09:00 +31°C° 0.2 mm 2 mps 757 mmHg 75%
    10:00 +32°C° 0.2 mm 2 mps 757 mmHg 72%
    11:00 +34°C° 0.2 mm 3 mps 757 mmHg 68%
    12:00 +34°C° 0.1 mm 3 mps 756 mmHg 67%
    13:00 +34°C° 0.1 mm 3 mps 755 mmHg 65%
    14:00 +34°C° 0.1 mm 3 mps 754 mmHg 64%
    15:00 +33°C° 0.6 mm 3 mps 754 mmHg 70%
    16:00 +31°C° 0.6 mm 2 mps 755 mmHg 75%
    17:00 +30°C° 0.6 mm 2 mps 755 mmHg 81%
    18:00 +29°C° 0.1 mm 2 mps 755 mmHg 84%
    19:00 +28°C° 0.1 mm 2 mps 756 mmHg 87%
    20:00 +28°C° 0.1 mm 2 mps 756 mmHg 90%
    21:00 +27°C° 0 mm 2 mps 756 mmHg 90%
    22:00 +27°C° 0 mm 2 mps 756 mmHg 90%
    23:00 +27°C° 0 mm 2 mps 756 mmHg 90%

    25 February, Monday

    Time Temperature Precipitation Wind Pressure Humidity
    00:00 +27°C° 0 mm 2 mps 756 mmHg 91%
    01:00 +27°C° 0 mm 2 mps 755 mmHg 91%
    02:00 +27°C° 0 mm 2 mps 755 mmHg 92%
    03:00 +27°C° 0 mm 2 mps 755 mmHg 92%
    04:00 +27°C° 0 mm 2 mps 755 mmHg 92%
    05:00 +27°C° 0 mm 2 mps 755 mmHg 92%
    06:00 +28°C° 0 mm 2 mps 756 mmHg 88%
    07:00 +29°C° 0 mm 2 mps 756 mmHg 84%
    08:00 +30°C° 0 mm 3 mps 757 mmHg 80%
    09:00 +31°C° 0.1 mm 3 mps 756 mmHg 76%
    10:00 +33°C° 0.1 mm 3 mps 756 mmHg 71%
    11:00 +33°C° 0.1 mm 3 mps 756 mmHg 66%
    12:00 +33°C° 0.4 mm 4 mps 755 mmHg 67%
    13:00 +33°C° 0.4 mm 4 mps 755 mmHg 68%
    14:00 +33°C° 0.4 mm 4 mps 754 mmHg 69%
    15:00 +33°C° 0.1 mm 4 mps 754 mmHg 70%
    16:00 +32°C° 0.1 mm 4 mps 754 mmHg 72%
    17:00 +32°C° 0.1 mm 4 mps 755 mmHg 74%
    18:00 +30°C° 0 mm 3 mps 755 mmHg 78%
    19:00 +29°C° 0 mm 3 mps 756 mmHg 82%
    20:00 +28°C° 0 mm 3 mps 756 mmHg 86%
    21:00 +28°C° 0 mm 3 mps 756 mmHg 87%
    22:00 +28°C° 0 mm 3 mps 756 mmHg 88%
    23:00 +28°C° 0 mm 3 mps 756 mmHg 89%
    Show more